Regional Weather Roundup
Issued by NWS Cleveland, OH

Home | Current Version | Previous Version | Graphics & Text | Print | Product List | Glossary On
Versions: 1 2 3 4 5 6 7 8 9 10 11 12 13 14 15 16 17 18 19 20 21 22 23 24 25 26 27 28 29 30 31 32 33 34 35 36 37 38 39 40 41 42 43 44 45 46 47 48 49 50
000
ASUS41 KCLE 252200
RWRCLE
OHIO REGIONAL WEATHER ROUNDUP
NATIONAL WEATHER SERVICE WILMINGTON, OH
600 PM EDT MON JUL 25 2016

NOTE: "FAIR" INDICATES FEW OR NO CLOUDS BELOW 12,000 FEET WITH NO
SIGNIFICANT WEATHER AND/OR OBSTRUCTIONS TO VISIBILITY.

OHZ001>008-015>018-024>027-034-035-043-044-252300-
   NORTHWEST OHIO

CITY           SKY/WX    TMP DP  RH WIND       PRES   REMARKS
DEFIANCE       FAIR      90  64  42 NW10      29.95R HX  91
FINDLAY        FAIR      89  66  46 W9        29.93F HX  91
TOLEDO EXPRESS FAIR      86  68  54 W12       29.93S
TOLEDO EXEC    FAIR      90  66  45 W12       29.93S HX  92
LIMA           FAIR      85  72  65 W9        29.96S HX  91
$$

OHZ009>014-019>023-028>033-038-089-252300-
   NORTHEAST OHIO

CITY           SKY/WX    TMP DP  RH WIND       PRES   REMARKS
CLE-HOPKINS    PTSUNNY   89  64  43 W15       29.93S HX  90
CLE-LAKEFRONT  FAIR      84  74  71 W10       29.90F HX  91
CUY CO. ARPT   MOSUNNY   88  73  62 NW14      29.93F HX  96
LORAIN-ELYRIA  FAIR      85  70  60 NW12      29.93F
ASHTABULA      FAIR      82  70  66 NW9       29.93S
AKRON-CANTON   FAIR      88  64  44 W12       29.94S
WOOSTER        NOT AVBL
MANSFIELD      FAIR      88  64  44 W7        29.96F
YOUNGSTOWN     PTSUNNY   87  69  54 W8G17     29.92F HX  91
$$

OHZ042-051>053-060>062-070>072-077>081-252300-
  SOUTHWEST OHIO

CITY           SKY/WX    TMP DP  RH WIND       PRES   REMARKS
CINC-COVINGTON PTSUNNY   87  75  67 SW7       29.98S HX  96
CINC-LUNKEN    FAIR      91  68  46 NW6       29.95S HX  95
HAMILTON       FAIR      92  67  43 NW8       29.97S HX  95
DAYTON         NOT AVBL
WRIGHT-PAT AFB FAIR      90  65  44 W9        29.95F HX  92
DAYTON GENERAL FAIR      90  67  46 NW12      29.96F HX  93
WILMINGTON     FAIR      90  66  45 NW9       29.97S HX  92
$$

OHZ036-037-039>041-045>050-054>059-063>069-073>076-082>088-252300-
  CENTRAL AND SOUTHEAST OHIO

CITY           SKY/WX    TMP DP  RH WIND       PRES   REMARKS
COLUMBUS       PTSUNNY   89  68  49 NW9       29.93F HX  93
OSU AIRPORT    FAIR      89  69  51 N8        29.95F HX  93
BOLTON FIELD   MOSUNNY   91  66  43 NW9G17    29.96S HX  94
RICKENBACK AFB NOT AVBL
NEWARK         FAIR      90  68  48 NW10      29.94S HX  94
MARION         FAIR      88  64  44 W10       29.96S
LANCASTER      FAIR      89  71  55 W8        29.94F HX  95
ZANESVILLE     FAIR      94  71  47 NW10      29.93S HX 101
NEW PHILLY     FAIR      94  66  39 VRB6      29.93S HX  97
$$



USA.gov is the U.S. government's official web portal to all federal, state and local government web resources and services.